Regional Weather Roundup
Issued by NWS

Home | Current Version | Previous Version | Text Only | Print | Product List | Glossary Off
Versions: 1 2 3 4 5 6 7 8 9 10 11 12 13 14 15 16 17 18 19 20 21 22 23 24 25 26 27 28

000
ASUS45 KCYS 232110
RWRWY

WYOMING REGIONAL WEATHER ROUNDUP
NATIONAL WEATHER SERVICE CHEYENNE WY
300 PM MDT SAT SEP 23 2017

NOTE:  "FAIR" INDICATES FEW OR NO CLOUDS BELOW 12,000 FEET
WITH NO SIGNIFICANT WEATHER AND/OR OBSTRUCTIONS TO VISIBILITY.

WYZ001-232200-
YELLOWSTONE NATIONAL PARK

CITY           SKY/WX    TMP DP  RH WIND       PRES   REMARKS
LK YELLOWSTONE NOT AVBL
W YELLOWSTONE  NOT AVBL

$$
WYZ002>013-054>058-071-098>099-232200-
NORTHERN WYOMING

CITY           SKY/WX    TMP DP  RH WIND       PRES   REMARKS
JACKSON        CLOUDY    48  28  46 CALM      29.97F
CODY           CLOUDY    39  35  86 N12       30.05F WCI  32
GREYBULL       CLOUDY    46  41  82 NW16      29.99F
WORLAND        LGT RAIN  44  41  89 NW8       30.02S
SHERIDAN       LGT RAIN  42  41  96 N8        30.06S
BUFFALO        LGT RAIN  40  37  89 N10       30.05F WCI  33
GILLETTE       LGT RAIN  42  41  96 N9        30.03R
HULETT         LGT RAIN  43  41  93 NE6       30.05F
NEWCASTLE      LGT RAIN  43  43 100 N6        30.02F

$$
WYZ014>020-022>026-101>103-232200-
CENTRAL WYOMING

CITY           SKY/WX    TMP DP  RH WIND       PRES   REMARKS
BIG PINEY      FAIR      48  33  56 VRB3      29.96S
PINEDALE       CLOUDY    46  34  61 CALM      29.97R
DUBOIS         CLOUDY    41  34  75 SE8       29.99R
LANDER           N/A    N/A N/A N/A MISG      30.00R
RIVERTON       LGT RAIN  40  39  97 N7        30.01R
CASPER         CLOUDY    43  41  93 NE14      29.96S
DOUGLAS        LGT RAIN  46  43  89 SE13      29.99F

$$
WYZ021-027>030-104>119-232200-
SOUTHERN WYOMING

CITY           SKY/WX    TMP DP  RH WIND       PRES   REMARKS
EVANSTON       CLOUDY    44  35  70 N10       29.94F
KEMMERER         N/A     45  32  61 E3        29.95F
FORT BRIDGER   CLOUDY    44  40  85 N7        29.97F
ROCK SPRINGS   CLOUDY    44  40  85 NE14      29.93F
DIXON          MOCLDY    54  34  45 SW12G17   29.94S
RAWLINS        CLOUDY    51  38  60 SE8       29.95R
SARATOGA       CLOUDY    50  37  62 SE17G25   29.96R
LARAMIE        CLOUDY    42  40  92 NE10      30.00F
CHEYENNE       LGT RAIN  42  40  92 N10       29.99R FOG
TORRINGTON     LGT RAIN  45  44  97 N9        29.99F FOG
PINE BLUFFS    CLOUDY    45  43  93 MISG      29.96F

$$




USA.gov is the U.S. government's official web portal to all federal, state and local government web resources and services.